World > North America > United States > New Jersey > High Point State Park  

High Point State Park, NJ Hourly Weather Updates

Feedback E-mail the Weather

Quick WX

High Point State Park, NJ Weather Maps

°F °C°F °C
High Point State Park Weather Map
UTC Time: 2/29/2024, 15:45
Your Time:

High Point State Park, NJ Regional Weather

Expires:202402291600;;154098
ASUS41 KOKX 291510
RWROKX

Regional Weather Roundup
National Weather Service New York NY
1000 AM EST THU FEB 29 2024

Note: "FAIR" indicates few or no clouds below 12,000 feet with no
significant weather and/or obstructions to visibility.


NJZ001-105-106-008-010-013-015-019>022-104-291600-
New Jersey
  
CITY           SKY/WX    TMP DP  RH WIND       PRES   REMARKS
Newark/Liberty PTSUNNY   38  12  34 NW15G38   30.28R WCI  29          
Teterboro      PTSUNNY   33  12  41 NW13      30.27R WCI  24          
Caldwell       PTSUNNY   35   8  32 NW12G23   30.28R WCI  27          
Somerville     PTSUNNY   34  11  38 W15G30    30.28R WCI  24          
Linden         PTSUNNY   36  11  35 NW23G30   30.30R WCI  24          
Perth Amboy      N/A     34 N/A N/A NW26G35     N/A  WCI  21          
Sussex         PTSUNNY   31  11  43 W14G26    30.25S WCI  21          
Andover          N/A     31  11  43 NW9G23    30.25S WCI  23          
Trenton        PTSUNNY   35  13  40 W14G29    30.30S WCI  26          
Millville      SUNNY     37  13  37 W21       30.36R WCI  26          
Atlantic City  SUNNY     38  15  39 NW21G32   30.34R WCI  28          
Wrightstown    MOSUNNY   37  13  37 NW18G26   30.32R WCI  26          
Toms River     MOSUNNY   37  13  37 NW21G28   30.32R WCI  26          
Belmar         MIX PCPN  35  11  36 W18G29    30.31R WCI  24          
$$
 

SKY/WX - Weather  TMP - Temperature  DP - Dew Point  RH - Humidity
WIND - Wind Direction/Speed PRES - Barometric Pressure VSB - Visibility
WCI - Wind Chill Index E13G22 Wind - East Wind 13 mph/Gusts of 22 mph

Trending Headlines

Trending Entertainment Headlines

High Point State Park Radar Loop

Use the map search tool if you want to place a location marker on the radar map...

High Point State Park Quick Facts

National Two Day Weather Forecast


E-mail the High Point State Park Weather Forecast

Voice your opinion or tell us about page issues...